West Palm Beach, FL

12:13 AM EDT on July 24, 2017 (GMT -0400)
Palm Beach International

Weather History for KPBI - January, 2013

Change the Weather History Date:

Sunday, January 20, 2013

  Actual Average Record
Temperature  
Mean Temperature 71 °F 66 °F  
Max Temperature 79 °F 75 °F 86 °F (1947)
Min Temperature 63 °F 57 °F 27 °F (1977)
Degree Days  
Heating Degree Days 0 3  
Month to date heating degree days 3 60  
Since 1 July heating degree days 46 131  
Cooling Degree Days 6 3  
Month to date cooling degree days 167 67  
Year to date cooling degree days 167 67  
Growing Degree Days 21 (Base 50)    
Moisture  
Dew Point 64 °F    
Average Humidity 81    
Maximum Humidity 100    
Minimum Humidity 62    
Precipitation  
Precipitation 0.00 in 0.09 in 5.16 in (1983)
Month to date precipitation 0.70 2.09  
Year to date precipitation 0.70 2.09  
Snow  
Snow 0.00 in - - ()
Month to date snowfall 0.0  
Since 1 July snowfall 0.0  
Snow Depth 0.00 in    
Sea Level Pressure  
Sea Level Pressure 30.07 in    
Wind  
Wind Speed 5 mph (North)    
Max Wind Speed 14 mph    
Max Gust Speed 22 mph    
Visibility 8 miles    
Events Fog    
T = Trace of Precipitation, MM = Missing Value Source: NWS Daily Summary

Daily Weather History Graph

Daily Weather History Graph

Search for Another Location

Airport or City:

Trip Planner

Search our weather history database for the weather conditions in past years. The results will help you decide how hot, cold, wet, or windy it might be!

Date:

Astronomy

Jan. 20, 2013 Rise Set
Actual Time 7:09 AM EST 5:53 PM EST
Civil Twilight 6:44 AM EST 6:18 PM EST
Nautical Twilight 6:16 AM EST 6:46 PM EST
Astronomical Twilight 5:48 AM EST 7:14 PM EST
Moon 12:52 PM EST (1/20) 1:43 AM EST (1/20)
Length of Visible Light 11h 33m
Length of Day
10h 44m
Waxing Gibbous, 66% of the Moon is Illuminated
Jan 20
Waxing Gibbous
Jan 26
Full
Feb 3
Last Quarter
Feb 10
New
Feb 17
First Quarter

Hourly Weather History & Observations

Time (EST) Temp. Dew Point Humidity Pressure Visibility Wind Dir Wind Speed Gust Speed Precip Events Conditions
12:53 AM 66.0 °F 64.9 °F 96% 30.10 in 10.0 mi WNW 3.5 mph - N/A   Mostly Cloudy
1:53 AM 64.9 °F 64.0 °F 97% 30.09 in 10.0 mi WNW 3.5 mph - N/A   Mostly Cloudy
2:21 AM 64.4 °F 64.4 °F 100% 30.08 in 2.0 mi Calm Calm - N/A   Mostly Cloudy
2:53 AM 64.9 °F 64.0 °F 97% 30.07 in 3.0 mi WNW 3.5 mph - N/A   Mostly Cloudy
3:33 AM 64.4 °F 64.4 °F 100% 30.07 in 2.5 mi Calm Calm - N/A   Mostly Cloudy
3:53 AM 64.0 °F 63.0 °F 96% 30.07 in 2.0 mi Calm Calm - N/A   Mostly Cloudy
4:31 AM 62.6 °F 62.6 °F 100% 30.08 in 0.5 mi WNW 4.6 mph - N/A Fog Fog
4:53 AM 62.6 °F 62.6 °F 100% 30.07 in 0.5 mi NW 6.9 mph - N/A Fog Fog
5:29 AM 64.4 °F 64.4 °F 100% 30.08 in 3.0 mi NNW 5.8 mph - N/A   Mostly Cloudy
5:53 AM 64.0 °F 64.0 °F 100% 30.09 in 10.0 mi NW 5.8 mph - N/A   Mostly Cloudy
6:53 AM 64.0 °F 63.0 °F 96% 30.10 in 9.0 mi WNW 3.5 mph - N/A   Mostly Cloudy
7:53 AM 64.9 °F 64.0 °F 97% 30.11 in 10.0 mi NNW 4.6 mph - N/A   Mostly Cloudy
8:53 AM 69.1 °F 66.0 °F 90% 30.14 in 10.0 mi NW 3.5 mph - N/A   Scattered Clouds
9:53 AM 73.9 °F 66.9 °F 79% 30.14 in 10.0 mi NW 4.6 mph - N/A   Scattered Clouds
10:53 AM 75.9 °F 66.9 °F 74% 30.13 in 10.0 mi NNW 5.8 mph - N/A   Scattered Clouds
11:53 AM 78.1 °F 64.9 °F 64% 30.09 in 10.0 mi NNW 3.5 mph - N/A   Scattered Clouds
12:53 PM 77.0 °F 66.0 °F 69% 30.06 in 10.0 mi ENE 9.2 mph - N/A   Mostly Cloudy
1:53 PM 77.0 °F 64.9 °F 66% 30.04 in 10.0 mi NNE 8.1 mph - N/A   Mostly Cloudy
2:53 PM 77.0 °F 64.9 °F 66% 30.02 in 10.0 mi NNE 9.2 mph - N/A   Mostly Cloudy
3:53 PM 73.9 °F 64.0 °F 71% 30.02 in 10.0 mi North 12.7 mph - N/A   Mostly Cloudy
4:53 PM 73.9 °F 64.0 °F 71% 30.04 in 10.0 mi NNE 10.4 mph - 0.00 in   Mostly Cloudy
5:53 PM 73.0 °F 64.9 °F 76% 30.04 in 10.0 mi North 5.8 mph - N/A   Mostly Cloudy
6:53 PM 73.9 °F 64.0 °F 71% 30.04 in 10.0 mi NNE 6.9 mph - N/A   Mostly Cloudy
7:53 PM 73.9 °F 64.0 °F 71% 30.05 in 10.0 mi NNE 6.9 mph - N/A   Mostly Cloudy
8:53 PM 73.9 °F 64.0 °F 71% 30.05 in 10.0 mi NE 8.1 mph - N/A   Overcast
9:53 PM 73.9 °F 64.0 °F 71% 30.06 in 10.0 mi ENE 10.4 mph - N/A   Overcast
10:53 PM 73.0 °F 64.0 °F 73% 30.06 in 10.0 mi NE 8.1 mph - N/A   Overcast
11:53 PM 73.9 °F 64.0 °F 71% 30.05 in 10.0 mi ENE 8.1 mph - N/A   Overcast